Keene, NH (03431)

2:58 AM EDT on May 01, 2017 (GMT -0400)
Court St. | | Change Station

Elev 522 ft 42.94 °N, 72.29 °W | Updated 11 seconds ago

Overcast
Overcast
47.3 °F
Feels Like 47 °F
N
0.0
Wind Variable Wind from SW

Today
High -- | Low -- °F
--% Chance of Precip.
Yesterday
High -- | Low -- °F
Precip. -- in
Pressure 30.17 in
Visibility 10.0 miles
Clouds Overcast 3200 ft
Windchill 47 °F
Dew Point 41 °F
Humidity 79%
Rainfall 0.00 in
Snow Depth Not available.
5:42 AM 7:50 PM
Waxing Crescent, 30% visible
METAR KEEN 010656Z AUTO 16004KT 10SM OVC032 08/04 A3011 RMK AO2 SLP217 T00830039 PNO $
Pressure 30.17 in
Visibility 10.0 miles
Clouds Overcast 3200 ft
Windchill 47 °F
Dew Point 41 °F
Humidity 79%
Rainfall 0.00 in
Snow Depth Not available.
5:42 AM 7:50 PM
Waxing Crescent, 30% visible
METAR KEEN 010656Z AUTO 16004KT 10SM OVC032 08/04 A3011 RMK AO2 SLP217 T00830039 PNO $

Get Severe Weather Alerts

Thanks for signing up!

Be on the lookout for a verification email in your inbox.

You'll start receiving the daily forecast at 8 AM.

×

10-Day Weather Forecast

Almanac

Astronomy

May. 01, 2017 Rise Set
Actual Time
Civil Twilight
Nautical Twilight
Astronomical Twilight
Moon
Length of Visible Light
Length of Day
Tomorrow will be .
, % of the Moon is Illuminated

Today's Extremes

State Highs State Lows

Community

WunderPhotos

WunderBlog® & News

Nearby

Air Quality

  Air Quality AQ Index Pollutant
Not available.

Snow Depth

Station Depth Elevation

Earthquake Activity

City Distance Mag. Time & Date
Minimum magnitude displayed is 2.5.

Coastal Water Temperatures

Place Temperature

Stations

Nearby Weather Stations

Station Location Temp. Windchill Dew Point Humidity Wind Precip. Elev Updated Type
                   

Watches & Warnings

There are currently no watches in effect.